Dewpoint
22 22 21 21 22 22 22 22 21 21 21 21 21 22 22 22 21 20 20 20 19 19 20 20 19 19 18 18 17 15 15 14 14 12 12 12 12 11 11 10 10 9 9 8 8 8 8 7 6 6 6 6 7 8 8 9 10 11 11 10 10 10 11 11 10 9 10 12 11 10 8 2 1 2 6 6 1 -4 2 -3 -2 -2 -2 -3 -2
22 22 21 21 21 21 21 20 20 20 19 20 19 19 19 19 18 18 18 18 19 19 19 19 19 18 18 17 16 16 15 15 14 14 12 11 11 11 11 10 9 9 8 7 7 7 7 6 6 6 6 6 6 6 6 6 8 9 9 9 8 9 10 10 9 9 7 8 10 8 7 6 7 2 2 5 5 -2 -2 -2 -2 -1 -2 -1 -0
20 20 20 20 20 19 18 19 18 18 17 17 17 17 17 17 18 17 17 18 18 18 19 18 18 17 17 17 16 15 14 14 14 13 12 12 11 10 10 10 9 9 8 8 7 7 6 7 6 7 7 7 7 7 7 6 7 7 7 8 8 9 11 11 10 8 7 7 8 7 5 5 5 4 1 2 5 -1 1 1 0 -0 0 0 0
21 19 18 18 18 18 18 18 18 17 16 16 16 16 16 17 19 18 18 17 18 18 18 18 17 17 16 15 15 14 14 14 13 13 13 12 11 11 10 10 10 10 9 9 9 9 8 8 8 8 8 8 8 7 7 7 6 6 7 7 7 7 8 9 9 8 7 5 5 4 4 2 4 3 3 2 -1 4 4 5 2 4 2 2 1
19 18 18 18 17 17 18 17 17 17 16 16 16 17 18 18 19 18 18 18 18 17 17 17 17 17 16 15 14 14 14 14 14 14 13 13 12 11 11 11 10 10 10 9 9 9 9 8 8 9 8 8 8 7 7 7 7 7 7 7 7 8 8 8 7 7 5 4 3 4 5 3 2 2 3 2 0 3 6 6 6 6 6 4 2
17 16 15 16 15 16 16 16 15 15 16 17 17 17 17 17 18 17 17 17 17 17 17 16 17 16 16 15 15 15 14 14 14 14 13 13 12 12 11 11 10 10 9 9 9 9 8 8 8 9 8 7 7 7 8 7 7 7 7 7 7 7 7 7 7 6 5 4 4 3 4 2 1 3 4 4 -3 2 3 6 6 7 6 7 7
17 17 16 15 15 14 14 14 14 14 14 15 15 15 15 16 16 15 16 16 16 16 16 16 16 16 15 15 14 14 14 14 13 13 13 12 12 11 11 10 10 10 9 9 9 9 9 9 8 8 8 8 7 7 7 7 7 7 7 6 6 6 5 5 5 4 4 3 3 3 3 3 2 2 4 3 -2 -0 2 4 4 5 5 5 5
14 14 13 13 13 12 11 11 12 12 13 13 14 13 13 14 14 15 15 16 16 15 15 15 15 15 14 13 13 13 13 12 12 12 11 11 11 11 11 10 10 9 9 9 9 9 9 9 8 8 8 8 7 7 7 6 6 6 6 6 5 4 3 3 3 3 3 3 3 2 3 3 4 5 5 5 3 5 5 3 2 2 4 5 5
13 13 13 12 10 10 10 12 11 11 12 12 11 11 11 12 13 14 14 15 15 15 15 15 14 13 13 13 12 12 12 11 11 11 11 11 11 10 10 10 9 9 9 9 9 9 9 9 8 8 8 8 9 9 8 8 6 5 5 6 5 4 4 3 3 2 2 3 3 4 4 4 5 5 6 2 1 1 4 4 3 4 4 4 5
12 12 11 11 10 10 10 11 11 10 11 10 10 11 11 11 11 12 13 13 14 15 15 15 14 13 13 12 12 12 11 11 11 12 12 13 13 12 11 11 10 10 9 9 9 9 9 9 9 10 9 9 9 9 9 9 9 8 5 5 5 5 3 3 2 2 2 2 2 3 3 4 5 6 4 3 4 4 2 3 2 2 3 3 4
10 10 10 10 9 9 9 9 10 10 10 10 10 10 10 10 10 11 11 12 12 13 14 13 13 13 12 12 12 11 11 11 12 14 15 16 15 15 14 13 12 11 10 10 9 9 10 10 9 9 10 10 9 10 10 9 9 9 9 8 7 5 3 2 2 2 2 2 3 3 3 3 4 5 4 4 4 3 2 2 2 1 1 1 -0
8 8 8 7 7 7 7 7 8 8 8 8 9 9 9 9 9 10 10 10 11 12 12 12 12 12 12 12 11 10 11 11 12 14 15 17 15 14 14 14 14 13 11 11 10 10 10 10 10 9 8 8 8 8 9 9 10 10 9 9 9 8 7 4 2 2 3 2 2 2 2 2 3 3 3 3 3 2 2 2 1 1 2 0 -0
5 6 5 4 4 5 5 5 5 6 6 7 8 8 8 8 8 8 8 9 11 11 11 11 11 12 11 10 10 10 10 10 12 13 15 15 16 14 13 13 12 12 12 13 12 11 11 11 10 10 8 10 10 9 8 7 8 9 9 9 9 9 8 8 7 5 3 3 2 2 2 2 1 2 3 3 3 1 1 1 2 2 1 -0 -1
2 3 3 3 3 3 3 4 4 4 5 6 7 7 8 7 8 8 9 9 10 10 10 10 10 10 10 10 10 10 10 10 11 12 13 15 15 13 11 10 10 10 10 11 12 12 12 11 10 10 10 9 9 8 8 7 6 6 6 7 7 8 8 8 8 8 7 5 3 1 2 3 2 3 4 3 3 1 0 -0 1 1 0 -1 0
1 2 2 2 1 2 2 2 2 3 4 5 6 6 7 7 7 7 8 8 9 8 9 9 9 10 10 10 9 9 9 9 10 10 11 14 15 11 8 8 8 8 10 10 10 11 11 12 12 11 10 9 9 9 8 7 6 5 5 4 5 5 5 6 6 6 6 6 5 4 3 4 4 4 4 4 2 1 2 2 2 2 1 1 1
-0 0 1 1 0 0 0 1 1 2 3 3 4 4 5 5 5 6 7 8 8 8 8 9 9 9 10 9 8 8 8 9 8 9 10 13 12 8 7 7 6 7 7 8 9 9 9 10 11 11 10 9 10 11 9 9 7 5 4 4 3 4 4 5 7 7 6 5 5 5 4 4 7 4 3 3 3 4 5 5 2 1 -1 -2 -3
-0 -1 -1 -1 -1 -1 -0 -0 0 1 2 2 2 3 3 3 4 6 6 6 6 6 7 8 9 9 8 7 7 7 8 8 7 7 8 12 9 6 6 5 5 5 6 7 7 7 7 8 8 9 10 9 10 10 10 8 7 5 4 3 3 2 2 4 6 7 8 10 10 13 13 12 12 13 13 11 7 6 2 -1 -2 -1 -3 -6 -6
-2 -2 -2 -2 -2 -1 -1 -0 -0 0 1 1 1 2 2 3 4 6 5 5 5 6 8 7 7 6 6 6 7 7 6 7 6 6 6 9 6 5 4 4 4 4 4 4 4 4 5 6 6 7 8 9 10 11 11 9 8 7 4 2 1 1 1 3 3 5 7 8 9 9 9 10 10 8 8 8 7 4 -1 -3 -2 -2 -5 -5 -6
-4 -4 -3 -3 -2 -1 -1 -1 -0 -0 -0 0 1 1 1 2 4 5 5 5 5 6 6 5 5 5 6 6 6 6 6 5 5 5 5 7 4 3 2 2 1 1 1 2 2 3 4 4 5 6 8 9 9 10 10 8 7 7 5 3 1 0 1 2 2 2 2 3 3 3 4 5 5 3 2 3 3 3 1 -1 -2 -4 -5 -5 -5
-4 -4 -3 -3 -2 -1 -1 -1 -1 -1 -1 -0 0 1 1 2 2 3 3 3 4 5 4 4 4 4 5 5 5 5 5 4 4 4 4 4 3 1 0 -0 -1 -1 -0 -1 -1 1 1 2 5 5 5 6 6 7 7 6 6 7 6 3 1 0 1 2 3 3 2 2 2 2 2 2 2 0 -0 -1 1 1 0 -1 -1 -3 -4 -5 -5
-4 -4 -4 -3 -2 -2 -1 -1 -1 -1 -0 -0 -0 -0 0 1 1 1 1 2 3 3 3 3 3 3 3 3 4 4 4 2 3 2 3 3 2 1 -1 -1 -1 -1 -1 -1 -2 -2 -1 2 3 3 3 4 5 5 6 7 7 8 6 4 3 3 5 3 4 6 4 2 1 1 1 1 1 1 1 0 -0 -1 1 0 -1 -2 -4 -5 -6
-5 -5 -4 -3 -2 -2 -2 -2 -1 -1 -1 -1 -2 -2 -0 1 1 0 1 2 1 1 1 1 0 0 0 1 2 1 1 1 -0 1 2 1 0 -0 -2 -2 -2 -2 -2 -2 -2 -2 -1 -0 1 3 3 3 3 4 5 6 6 8 8 8 8 7 6 6 4 4 4 1 -0 -1 -0 -0 -0 0 1 1 1 -0 -1 -1 -2 -3 -2 -3 -5
-6 -5 -4 -3 -3 -3 -3 -3 -2 -1 -1 -2 -2 -2 -1 -1 -1 -1 0 -0 -1 -2 -2 -1 -2 -2 -2 -1 -1 -2 -2 -2 -1 -0 0 -0 -1 -2 -2 -3 -2 -2 -3 -3 -3 -3 -1 1 1 2 2 2 3 4 5 5 7 8 8 8 7 7 7 6 6 5 3 1 -1 -1 -1 -1 -1 -1 1 1 1 0 -1 -2 -3 -3 -3 -3 -3
-6 -5 -4 -3 -3 -3 -3 -2 -1 -2 -2 -2 -3 -3 -3 -3 -2 -2 -1 -2 -3 -4 -4 -3 -4 -4 -4 -4 -4 -4 -4 -4 -2 -1 -1 -2 -3 -3 -3 -3 -3 -4 -4 -4 -4 -3 -3 -4 -2 -0 0 1 2 3 4 5 7 6 5 5 5 4 2 1 -0 -1 1 -0 -2 -3 -3 -3 -2 -1 -1 -1 -1 -2 -1 -2 -2 -4 -5 -5 -4
-6 -5 -4 -4 -4 -3 -3 -2 -3 -3 -3 -3 -4 -4 -4 -4 -5 -4 -2 -3 -5 -6 -6 -5 -6 -5 -6 -6 -7 -7 -6 -6 -6 -3 -3 -4 -5 -5 -4 -4 -4 -4 -5 -5 -4 -5 -4 -3 -2 -1 0 1 2 2 3 4 5 5 4 4 3 0 -0 -2 -3 -3 -5 -4 -4 -3 -3 -1 -1 -1 -3 -5 -4 -4 -5 -5 -5 -4 -4 -4 -4
-7 -5 -5 -5 -4 -4 -5 -4 -5 -4 -4 -4 -4 -4 -5 -5 -6 -5 -4 -5 -6 -7 -7 -7 -7 -7 -8 -9 -9 -9 -8 -8 -8 -8 -5 -6 -6 -6 -6 -6 -5 -5 -5 -6 -5 -4 -4 -4 -3 -2 -0 1 3 2 2 3 2 2 2 3 -2 -2 -2 -2 -4 -5 -6 -5 -4 -4 -5 -4 -3 -5 -6 -6 -6 -7 -6 -5 -5 -6 -6 -6 -6
-7 -6 -6 -6 -6 -5 -6 -6 -6 -6 -6 -5 -6 -5 -6 -6 -7 -6 -6 -6 -8 -9 -9 -8 -8 -8 -10 -11 -11 -10 -11 -10 -10 -9 -8 -8 -8 -7 -8 -8 -6 -6 -7 -7 -6 -6 -5 -5 -4 -2 0 0 0 -0 -0 2 3 2 1 1 -0 -2 -2 -4 -5 -5 -4 -6 -5 -5 -4 -4 -6 -6 -7 -7 -7 -6 -4 -6 -8 -9 -9 -7 -9
-8 -6 -6 -7 -7 -7 -7 -6 -7 -7 -8 -7 -7 -7 -7 -7 -7 -7 -7 -9 -10 -11 -10 -9 -9 -12 -14 -13 -13 -13 -12 -12 -11 -9 -9 -8 -8 -8 -8 -8 -8 -8 -8 -8 -7 -6 -6 -4 -4 -3 -4 -3 -3 -4 -3 -2 -1 -0 -2 -3 -3 -2 -1 -0 0 -5 -6 -5 -5 -5 -5 -6 -6 -7 -7 -7 -6 -5 -6 -8 -10 -11 -11 -12 -13
-8 -7 -7 -8 -9 -9 -8 -8 -8 -9 -9 -8 -8 -8 -8 -9 -8 -8 -8 -9 -11 -12 -11 -10 -10 -16 -16 -15 -14 -14 -13 -12 -10 -7 -8 -7 -8 -9 -9 -8 -8 -8 -6 -5 -6 -7 -7 -7 -7 -7 -7 -7 -7 -6 -6 -5 -5 -4 -4 -4 -5 -6 -5 -5 -6 -6 -5 -6 -5 -6 -6 -7 -6 -6 -7 -8 -8 -8 -7 -9 -12 -14 -15 -15 -15
-9 -9 -9 -10 -10 -10 -10 -10 -10 -10 -10 -10 -10 -10 -8 -7 -5 -10 -11 -5 -6 -6 -6 -8 -10 -13 -16 -15 -13 -11 -12 -10 -7 -7 -7 -7 -7 -7 -6 -6 -6 -7 -6 -6 -6 -8 -9 -11 -10 -9 -9 -9 -9 -8 -8 -8 -7 -7 -6 -3 -5 -7 -6 -6 -5 -5 -5 -7 -9 -8 -8 -8 -8 -8 -9 -10 -10 -10 -9 -7 -14 -15 -15 -16 -16
-12 -12 -11 -12 -11 -11 -11 -11 -11 -11 -11 -11 -11 -11 -11 -10 -8 -7 -6 -6 -6 -5 -5 -5 -6 -7 -8 -14 -11 -8 -8 -8 -8 -8 -7 -7 -7 -7 -7 -7 -6 -6 -6 -7 -10 -11 -11 -12 -11 -11 -10 -10 -10 -10 -9 -9 -8 -8 -8 -7 -6 -5 -4 -4 -4 -5 -7 -8 -8 -8 -9 -9 -10 -9 -10 -9 -11 -10 -11 -12 -13 -14 -13 -14 -14
-14 -13 -12 -13 -13 -12 -12 -12 -12 -12 -12 -12 -13 -12 -13 -13 -13 -10 -9 -9 -8 -7 -7 -7 -8 -8 -8 -9 -9 -12 -8 -8 -8 -8 -8 -7 -8 -7 -7 -7 -6 -7 -7 -8 -12 -13 -13 -13 -12 -12 -11 -11 -11 -10 -10 -10 -10 -9 -9 -8 -7 -6 -6 -7 -7 -10 -11 -11 -11 -9 -10 -10 -10 -10 -10 -10 -10 -11 -13 -14 -15 -13 -12 -13 -13
-14 -14 -13 -14 -14 -13 -12 -13 -13 -14 -15 -15 -15 -14 -14 -15 -15 -15 -13 -10 -10 -10 -9 -8 -7 -7 -9 -9 -9 -9 -9 -9 -9 -9 -8 -8 -8 -8 -8 -8 -8 -8 -8 -11 -17 -15 -15 -13 -13 -12 -12 -12 -12 -11 -11 -11 -10 -10 -10 -9 -9 -8 -8 -9 -10 -11 -10 -10 -10 -12 -12 -11 -10 -11 -11 -12 -12 -11 -12 -13 -13 -13 -13 -13 -13
-14 -13 -14 -15 -16 -16 -16 -16 -17 -16 -17 -17 -16 -15 -14 -15 -16 -16 -15 -15 -14 -12 -11 -11 -10 -9 -8 -10 -10 -10 -10 -11 -10 -10 -9 -9 -9 -9 -9 -10 -10 -10 -10 -13 -15 -16 -15 -14 -13 -13 -13 -12 -12 -11 -11 -12 -11 -10 -10 -10 -10 -9 -8 -8 -8 -9 -10 -9 -12 -11 -11 -12 -12 -14 -13 -13 -12 -13 -13 -13 -12 -13 -15 -15 -15
-15 -13 -12 -13 -18 -18 -16 -16 -17 -18 -18 -17 -17 -16 -16 -15 -15 -15 -15 -15 -15 -15 -15 -14 -11 -11 -11 -9 -10 -11 -11 -12 -11 -10 -9 -9 -10 -10 -10 -14 -15 -15 -14 -16 -14 -17 -15 -14 -14 -13 -13 -13 -13 -12 -12 -13 -12 -11 -11 -10 -10 -10 -9 -8 -7 -8 -8 -9 -12 -12 -12 -13 -14 -14 -13 -14 -13 -14 -15 -15 -15 -15 -16 -16 -16
-19 -19 -18 -16 -17 -18 -18 -17 -18 -18 -20 -18 -17 -16 -15 -16 -16 -17 -15 -15 -15 -16 -15 -15 -15 -10 -10 -9 -10 -12 -13 -13 -12 -10 -10 -10 -11 -11 -15 -16 -17 -16 -15 -15 -16 -14 -14 -14 -14 -14 -13 -13 -13 -13 -13 -13 -12 -12 -11 -11 -11 -11 -10 -10 -10 -10 -11 -11 -12 -13 -12 -14 -14 -15 -16 -17 -17 -14 -13 -14 -15 -16 -17 -18 -18
-21 -21 -20 -20 -21 -21 -19 -17 -18 -18 -14 -16 -17 -17 -17 -17 -16 -17 -17 -17 -16 -17 -16 -16 -15 -15 -13 -13 -12 -13 -13 -13 -12 -12 -12 -12 -12 -12 -19 -17 -18 -17 -16 -16 -15 -15 -16 -16 -14 -14 -14 -14 -14 -13 -13 -13 -13 -13 -12 -12 -12 -12 -11 -11 -11 -12 -14 -13 -12 -14 -16 -14 -14 -15 -17 -18 -16 -15 -13 -15 -16 -16 -17 -16 -17
-22 -22 -21 -21 -21 -22 -21 -19 -18 -14 -16 -18 -18 -18 -17 -18 -18 -17 -16 -16 -15 -16 -17 -17 -14 -16 -16 -16 -13 -14 -14 -15 -15 -14 -13 -13 -13 -19 -18 -18 -17 -17 -16 -16 -16 -16 -16 -16 -15 -15 -15 -15 -15 -14 -14 -14 -14 -14 -14 -14 -13 -12 -10 -10 -11 -13 -14 -14 -14 -12 -13 -13 -14 -16 -17 -18 -16 -15 -15 -17 -19 -18 -18 -17 -20
-21 -16 -15 -15 -15 -21 -21 -19 -18 -18 -19 -18 -19 -18 -18 -17 -18 -19 -18 -19 -19 -18 -17 -18 -17 -17 -17 -17 -17 -15 -16 -19 -19 -18 -17 -17 -17 -19 -19 -19 -18 -16 -16 -17 -16 -16 -16 -16 -15 -15 -15 -15 -15 -15 -15 -15 -15 -14 -15 -15 -14 -14 -14 -13 -13 -13 -13 -13 -13 -14 -15 -15 -16 -17 -18 -17 -15 -16 -17 -18 -19 -20 -19 -19 -19
-20 -20 -18 -15 -18 -18 -18 -18 -19 -19 -19 -20 -20 -20 -20 -20 -20 -20 -20 -20 -19 -19 -19 -18 -18 -17 -16 -19 -19 -17 -19 -19 -20 -19 -18 -18 -18 -18 -20 -20 -18 -17 -17 -17 -17 -17 -17 -16 -16 -16 -16 -16 -15 -15 -15 -15 -15 -14 -15 -15 -15 -15 -15 -15 -14 -13 -16 -16 -17 -16 -16 -16 -15 -16 -16 -16 -16 -17 -17 -17 -18 -18 -19 -20 -18
-22 -21 -18 -17 -17 -20 -20 -19 -20 -20 -21 -21 -20 -21 -21 -20 -20 -19 -20 -20 -19 -19 -19 -19 -18 -18 -17 -14 -13 -14 -21 -21 -20 -19 -18 -18 -18 -19 -19 -19 -18 -18 -17 -17 -17 -16 -16 -16 -16 -16 -16 -15 -15 -15 -15 -15 -15 -15 -16 -15 -15 -15 -15 -16 -16 -16 -16 -18 -18 -18 -17 -16 -16 -15 -16 -16 -12 -14 -17 -18 -18 -19 -18 -19 -19
-23 -22 -21 -20 -19 -20 -21 -20 -20 -18 -20 -20 -21 -20 -20 -20 -20 -20 -20 -20 -19 -19 -19 -19 -18 -17 -15 -14 -13 -15 -17 -21 -20 -19 -19 -20 -19 -19 -18 -19 -19 -19 -17 -17 -16 -16 -16 -16 -16 -16 -16 -16 -16 -15 -15 -15 -15 -15 -15 -15 -15 -15 -16 -16 -17 -18 -18 -18 -18 -17 -17 -15 -15 -16 -16 -11 -17 -19 -18 -18 -18 -19 -19 -19 -18
-23 -22 -22 -21 -21 -22 -21 -21 -21 -22 -22 -22 -21 -19 -19 -20 -21 -20 -20 -20 -19 -20 -19 -19 -18 -18 -17 -15 -15 -15 -20 -21 -19 -19 -21 -19 -19 -19 -19 -18 -18 -18 -16 -16 -15 -15 -15 -16 -16 -16 -16 -16 -16 -15 -15 -15 -15 -15 -15 -16 -16 -16 -16 -15 -16 -16 -16 -17 -17 -17 -17 -15 -14 -15 -15 -16 -17 -18 -19 -19 -19 -19 -18 -17 -17
-22 -22 -21 -21 -21 -21 -21 -22 -22 -22 -22 -20 -19 -20 -20 -21 -21 -21 -20 -21 -21 -21 -20 -19 -19 -18 -18 -17 -17 -19 -21 -21 -22 -21 -20 -19 -20 -19 -18 -17 -17 -16 -16 -16 -16 -15 -16 -16 -16 -16 -16 -16 -15 -16 -15 -15 -14 -15 -15 -15 -16 -15 -16 -16 -16 -17 -17 -17 -17 -17 -16 -16 -16 -16 -17 -17 -20 -20 -20 -20 -19 -18 -17 -17 -16
-23 -22 -22 -23 -23 -23 -22 -22 -22 -21 -20 -20 -22 -21 -21 -22 -21 -20 -20 -20 -21 -21 -21 -21 -19 -19 -19 -19 -20 -20 -20 -21 -20 -20 -20 -20 -21 -19 -18 -17 -17 -17 -17 -16 -16 -16 -16 -16 -16 -16 -16 -16 -15 -15 -15 -15 -15 -14 -14 -14 -16 -16 -16 -17 -17 -17 -17 -19 -18 -18 -17 -17 -18 -18 -19 -20 -21 -20 -19 -18 -18 -18 -17 -17 -16
-22 -22 -22 -22 -22 -22 -22 -23 -21 -22 -22 -23 -22 -21 -20 -21 -20 -21 -20 -20 -20 -22 -22 -22 -21 -21 -20 -21 -20 -21 -20 -22 -21 -21 -20 -20 -19 -18 -17 -17 -17 -17 -17 -16 -16 -16 -16 -16 -16 -16 -16 -16 -16 -16 -15 -15 -14 -14 -15 -15 -14 -15 -17 -18 -19 -19 -20 -19 -18 -18 -19 -19 -20 -19 -19 -18 -18 -18 -18 -18 -17 -17 -16 -16 -15
-23 -21 -21 -22 -23 -22 -22 -21 -22 -22 -22 -21 -22 -21 -21 -20 -21 -20 -20 -19 -19 -21 -22 -22 -23 -22 -21 -22 -21 -22 -21 -21 -21 -20 -21 -20 -20 -18 -17 -17 -17 -17 -17 -17 -17 -16 -16 -16 -16 -16 -16 -16 -16 -16 -16 -15 -14 -14 -15 -15 -16 -17 -19 -20 -20 -21 -20 -20 -20 -21 -21 -21 -20 -19 -18 -18 -18 -18 -18 -18 -17 -17 -16 -16 -15
-20 -20 -21 -21 -22 -22 -22 -22 -20 -20 -20 -20 -20 -21 -20 -20 -21 -21 -22 -21 -21 -22 -23 -23 -23 -22 -22 -22 -22 -22 -22 -22 -21 -20 -20 -20 -20 -18 -18 -18 -17 -17 -17 -17 -17 -17 -17 -17 -16 -16 -16 -16 -16 -16 -16 -15 -15 -16 -16 -17 -19 -20 -19 -20 -22 -22 -22 -22 -22 -22 -21 -20 -19 -19 -18 -18 -19 -18 -18 -18 -17 -16 -16 -16 -15
-20 -20 -21 -22 -22 -22 -22 -21 -21 -21 -20 -20 -20 -20 -20 -20 -21 -22 -21 -22 -23 -23 -24 -23 -22 -23 -23 -22 -22 -22 -22 -21 -22 -22 -20 -20 -20 -19 -18 -17 -18 -18 -18 -18 -18 -18 -17 -17 -17 -16 -16 -16 -16 -16 -16 -16 -16 -16 -18 -19 -18 -18 -19 -20 -21 -22 -20 -21 -21 -21 -20 -19 -19 -19 -19 -19 -19 -18 -17 -17 -17 -17 -16 -16 -16
-19 -19 -20 -21 -21 -21 -21 -21 -21 -21 -21 -21 -21 -21 -20 -21 -21 -22 -21 -22 -23 -24 -24 -23 -23 -23 -23 -22 -22 -23 -23 -23 -22 -21 -21 -20 -19 -19 -18 -18 -18 -18 -18 -19 -18 -18 -17 -17 -17 -17 -16 -16 -16 -16 -16 -16 -17 -18 -19 -18 -17 -18 -19 -20 -20 -20 -20 -22 -22 -22 -21 -21 -20 -19 -19 -18 -18 -18 -17 -17 -17 -17 -17 -17 -17
-19 -19 -21 -21 -21 -21 -21 -22 -21 -21 -22 -21 -22 -22 -21 -21 -21 -22 -23 -24 -24 -24 -24 -24 -24 -23 -23 -24 -23 -24 -23 -24 -22 -22 -21 -21 -20 -19 -19 -19 -19 -19 -19 -19 -19 -18 -18 -18 -17 -17 -17 -16 -16 -16 -17 -17 -19 -19 -16 -16 -17 -18 -18 -19 -19 -19 -20 -20 -21 -22 -22 -22 -21 -20 -19 -18 -18 -18 -17 -18 -17 -17 -17 -17 -16